Location: Newark
(35.6799°N, 139.7636°E)
Time: 02:11:41
(UTC+00:00)

Vanguard 3 - Visible Passes

Search period start: 15 December 2019 00:00
Search period end: 25 December 2019 00:00
Orbit: 508 x 3263 km, 33.3° (Epoch: 13 December)

Date Brightness Start Highest point End Pass type
(mag) Time Alt. Az. Time Alt. Az. Time Alt. Az.
15 Dec 9.3 18:59:57 11° SSE 19:01:49 14° SE 19:04:32 10° ESE visible
15 Dec 8.3 21:07:08 10° WSW 21:12:21 57° SSE 21:21:25 10° E visible
16 Dec 8.6 19:55:14 13° SSW 19:58:48 34° SSE 20:05:01 10° E visible
17 Dec 9.2 18:45:52 15° SE 18:45:52 15° SE 18:48:37 10° ESE visible
17 Dec 7.9 20:51:27 10° WSW 20:56:17 60° SSE 21:04:30 10° E visible
18 Dec 8.0 19:41:01 27° SSW 19:42:44 37° SSE 19:48:29 10° E visible
19 Dec 9.5 18:31:33 14° ESE 18:31:33 14° ESE 18:32:41 10° ESE visible
19 Dec 7.6 20:36:08 12° WSW 20:40:18 63° SSE 20:47:43 10° E visible
20 Dec 7.6 19:26:37 40° SSE 19:26:47 40° SSE 19:32:03 10° E visible
21 Dec 7.2 20:21:38 22° WSW 20:24:23 65° S 20:31:03 10° E visible
22 Dec 8.0 19:12:02 36° ESE 19:12:02 36° ESE 19:15:44 10° E visible
23 Dec 6.9 20:06:59 38° WSW 20:08:32 66° S 20:14:31 10° E visible
24 Dec 8.7 18:57:20 24° ESE 18:57:20 24° ESE 18:59:32 10° E visible
24 Dec 7.4 21:02:00 10° W 21:06:23 67° S 21:13:28 10° ESE visible
